Hourly Data Report for July 06, 2021

CARIBOU POINT (AUT)
NOVA SCOTIA
Current Station Operator: ECCC - MSC

45°46'00.000" N
62°41'00.000" W
2.40 m
8200774
71415
WBK

Download Data

Hourly Data (July 2021)
Hourly Data Report for July 6, 2021
TIME
LST
Temp Definition
°C
Dew Point Definition
°C
Rel Hum Definition
%
Precip. Amount Definition
mm

Wind Dir Definition
10's deg

Wind Spd Definition
km/h
Visibility Definition
km
Stn Press Definition
kPa
Hmdx Definition


Wind Chill Definition


Weather Definition


00:00 14.3 12.9 92 0.0 23 7   101.20     LegendNANA
01:00 15.6 11.8 78 0.0 27 11   101.17     LegendNANA
02:00 16.9 11.0 68 0.0 25 16   101.20     LegendNANA
03:00 15.7 10.6 72 0.0 27 10   101.28     LegendNANA
04:00 14.5 8.8 69 0.0 26 7   101.30     LegendNANA
05:00 14.8 10.2 74 0.0 25 4   101.30     LegendNANA
06:00 15.4 11.9 80 0.0 22 6   101.32     LegendNANA
07:00 16.9 13.4 80 0.0 22 7   101.33     LegendNANA
08:00 18.5 13.5 72 0.0 24 13   101.33     LegendNANA
09:00 20.3 14.9 71 0.0 25 12   101.27     LegendNANA
10:00 20.4 15.6 74 0.0 20 11   101.27 25   LegendNANA
11:00 21.7 16.5 72 0.0 24 13   101.24 27   LegendNANA
12:00 23.4 16.6 66 0.0 23 16   101.14 28   LegendNANA
13:00 24.5 15.1 56 0.0 24 14   101.07 29   LegendNANA
14:00 25.1 16.1 58 0.0 21 16   100.93 30   LegendNANA
15:00 24.6 17.6 65 0.0 21 16   100.90 30   LegendNANA
16:00 24.0 17.8 68 0.0 20 18   100.84 30   LegendNANA
17:00 21.9 17.8 77 0.0 21 15   100.74 28   LegendNANA
18:00 20.3 17.1 82 0.0 20 17   100.70 26   LegendNANA
19:00 19.2 16.8 86 0.0 22 11   100.67     LegendNANA
20:00 18.0 16.1 89 0.0 19 14   100.62     LegendNANA
21:00 18.3 16.6 90 0.0 21 12   100.67     LegendNANA
22:00 17.6 16.4 93 0.0 18 17   100.61     LegendNANA
23:00 18.0 16.6 92 0.0 20 12   100.55     LegendNANA

Notes on Data Quality.

Legend

  • E = Estimated
  • M = Missing
  • NA = Not Available*
  • [empty] = Indicates an unobserved value
Date modified: